TimeEDT,TemperatureF,Dew PointF,Humidity,Sea Level PressureIn,VisibilityMPH,Wind Direction,Wind SpeedMPH,Gust SpeedMPH,PrecipitationIn,Events,Conditions,WindDirDegrees,DateUTC
12:40 AM,69.8,69.8,100,29.90,0.8,Calm,Calm,-,N/A,,Overcast,0,2013-08-29 04:40:00
12:44 AM,69.8,69.8,100,29.90,1.2,Calm,Calm,-,N/A,,Overcast,0,2013-08-29 04:44:00
12:53 AM,70.0,69.1,97,29.89,1.5,Calm,Calm,-,N/A,,Mostly Cloudy,0,2013-08-29 04:53:00
1:09 AM,69.8,68.0,94,29.90,2.0,Calm,Calm,-,N/A,,Partly Cloudy,0,2013-08-29 05:09:00
1:15 AM,69.8,68.0,94,29.91,1.0,Calm,Calm,-,N/A,,Scattered Clouds,0,2013-08-29 05:15:00
1:21 AM,69.8,68.0,94,29.91,0.8,Calm,Calm,-,N/A,,Mostly Cloudy,0,2013-08-29 05:21:00
1:28 AM,68.0,66.2,94,29.91,1.2,Calm,Calm,-,N/A,,Mostly Cloudy,0,2013-08-29 05:28:00
1:44 AM,69.8,68.0,94,29.92,2.0,North,3.5,-,N/A,,Mostly Cloudy,10,2013-08-29 05:44:00
1:53 AM,69.1,68.0,96,29.91,1.8,Calm,Calm,-,N/A,,Mostly Cloudy,0,2013-08-29 05:53:00
2:07 AM,69.8,68.0,94,29.92,2.0,Calm,Calm,-,N/A,,Overcast,0,2013-08-29 06:07:00
2:30 AM,69.8,68.0,94,29.93,2.5,Calm,Calm,-,0.01,,Overcast,0,2013-08-29 06:30:00
2:40 AM,68.0,66.2,94,29.92,1.2,Calm,Calm,-,0.01,,Mostly Cloudy,0,2013-08-29 06:40:00
2:49 AM,69.8,68.0,94,29.93,2.0,Calm,Calm,-,0.01,,Overcast,0,2013-08-29 06:49:00
2:50 AM,69.1,68.0,96,29.92,2.0,Calm,Calm,-,0.01,,Overcast,0,2013-08-29 06:50:00
3:02 AM,69.8,68.0,94,29.93,1.5,Calm,Calm,-,N/A,,Overcast,0,2013-08-29 07:02:00
3:12 AM,69.8,68.0,94,29.93,2.5,Calm,Calm,-,N/A,,Overcast,0,2013-08-29 07:12:00
3:25 AM,68.0,66.2,94,29.93,1.0,Calm,Calm,-,N/A,,Mostly Cloudy,0,2013-08-29 07:25:00
3:28 AM,68.0,66.2,94,29.93,0.5,Calm,Calm,-,N/A,Fog,Fog,0,2013-08-29 07:28:00
3:53 AM,66.9,64.9,93,29.92,0.5,Calm,Calm,-,N/A,Fog,Fog,0,2013-08-29 07:53:00
4:34 AM,66.2,64.4,94,29.94,1.2,Calm,Calm,-,N/A,,Overcast,0,2013-08-29 08:34:00
4:45 AM,66.2,66.2,100,29.95,0.8,Calm,Calm,-,N/A,,Overcast,0,2013-08-29 08:45:00
4:53 AM,68.0,66.9,96,29.94,0.2,Calm,Calm,-,N/A,Fog,Fog,0,2013-08-29 08:53:00
5:40 AM,68.0,66.2,94,29.96,1.5,NE,3.5,-,N/A,,Overcast,40,2013-08-29 09:40:00
5:44 AM,68.0,66.2,94,29.96,3.0,NE,3.5,-,N/A,,Overcast,40,2013-08-29 09:44:00
5:53 AM,68.0,66.9,96,29.96,3.0,Calm,Calm,-,N/A,,Overcast,0,2013-08-29 09:53:00
6:19 AM,66.2,66.2,100,29.97,2.0,NE,3.5,-,N/A,,Overcast,40,2013-08-29 10:19:00
6:53 AM,66.9,66.0,97,29.99,2.0,ENE,3.5,-,N/A,,Overcast,70,2013-08-29 10:53:00
7:48 AM,68.0,66.2,94,30.00,3.0,Calm,Calm,-,N/A,,Overcast,0,2013-08-29 11:48:00
7:53 AM,68.0,66.9,96,30.00,2.5,Calm,Calm,-,N/A,,Overcast,0,2013-08-29 11:53:00
8:05 AM,68.0,66.2,94,30.01,3.0,Calm,Calm,-,N/A,,Overcast,0,2013-08-29 12:05:00
8:24 AM,69.8,66.2,88,30.01,2.5,East,3.5,-,N/A,,Overcast,80,2013-08-29 12:24:00
8:53 AM,69.1,66.9,93,30.01,3.0,Calm,Calm,-,N/A,,Overcast,0,2013-08-29 12:53:00
9:53 AM,71.1,68.0,90,30.02,4.0,Calm,Calm,-,N/A,,Overcast,0,2013-08-29 13:53:00
10:53 AM,72.0,68.0,87,30.03,5.0,Calm,Calm,-,N/A,,Overcast,0,2013-08-29 14:53:00
11:25 AM,73.4,68.0,83,30.04,6.0,Calm,Calm,-,N/A,,Haze,0,2013-08-29 15:25:00
11:53 AM,73.9,68.0,82,30.04,7.0,Variable,4.6,-,N/A,,Overcast,0,2013-08-29 15:53:00
12:53 PM,75.9,68.0,76,30.03,8.0,Variable,3.5,-,N/A,,Overcast,0,2013-08-29 16:53:00
1:25 PM,78.8,69.8,74,30.03,9.0,South,4.6,-,N/A,,Scattered Clouds,170,2013-08-29 17:25:00
1:53 PM,79.0,69.1,72,30.02,9.0,Calm,Calm,-,N/A,,Clear,0,2013-08-29 17:53:00
2:53 PM,81.0,68.0,65,30.00,10.0,Calm,Calm,-,N/A,,Clear,0,2013-08-29 18:53:00
3:53 PM,82.9,66.9,58,29.99,10.0,Calm,Calm,-,N/A,,Clear,0,2013-08-29 19:53:00
4:53 PM,84.0,68.0,58,29.98,10.0,SE,3.5,-,N/A,,Clear,140,2013-08-29 20:53:00
5:53 PM,82.0,66.9,60,29.99,10.0,South,3.5,-,N/A,,Clear,170,2013-08-29 21:53:00
6:53 PM,81.0,66.9,62,29.98,10.0,Calm,Calm,-,N/A,,Mostly Cloudy,0,2013-08-29 22:53:00
7:40 PM,77.0,69.8,78,29.99,8.0,Calm,Calm,-,0.00,Rain-Thunderstorm,Light Thunderstorms and Rain,0,2013-08-29 23:40:00
7:53 PM,75.0,71.1,87,29.99,4.0,West,4.6,-,0.01,Rain-Thunderstorm,Light Rain,280,2013-08-29 23:53:00
8:25 PM,71.6,69.8,94,30.01,10.0,Calm,Calm,-,0.00,,Scattered Clouds,0,2013-08-30 00:25:00
8:53 PM,71.1,66.9,87,30.01,10.0,Calm,Calm,-,0.00,,Partly Cloudy,0,2013-08-30 00:53:00
9:53 PM,69.1,66.9,93,30.01,9.0,Calm,Calm,-,N/A,,Partly Cloudy,0,2013-08-30 01:53:00
10:53 PM,66.9,66.0,97,30.00,5.0,Calm,Calm,-,N/A,,Clear,0,2013-08-30 02:53:00
11:53 PM,69.1,66.9,93,30.02,8.0,Calm,Calm,-,N/A,,Mostly Cloudy,0,2013-08-30 03:53:00